Terminal Aerodrome Forecast
Issued by NWS Buffalo, NY

Home | Current Version | Previous Version | Text Only | Print | Product List | Glossary On
Versions: 1 2 3 4 5 6 7 8 9 10 11 12 13 14 15 16 17 18 19 20 21 22 23 24 25
000
FTUS41 KBUF 071730
TAFART
TAF
KART 071730Z 0718/0818 22011G17KT P6SM BKN100
     FM071900 22011KT P6SM BKN200
     FM072300 21007KT 6SM -SHRA BKN060 BKN200
     FM080100 22006KT 3SM -SHRA OVC045
     FM080600 26007KT P6SM VCSH OVC015
     FM080800 33008KT P6SM VCSH BKN030
     FM081000 35008KT P6SM BKN250=

USA.gov is the U.S. government's official web portal to all federal, state and local government web resources and services.